Home > Weather > Rafsanjan > Past weeks

Flag for Iran Weather for the Past 2 Weeks in Rafsanjan, Iran

Now
88 °F

Scattered clouds.


Feels Like: 84 °F
Forecast: 72 / 95 °F
Wind: 12 mph from Northwest

Location: Kerman Airport

Current Time: May 5, 2016 at 3:03:51 PM

Latest Report: May 5, 2016 at 2:30 PM


Visibility: N/A

Pressure: 30.09 "Hg (25.38 "Hg at 1515m altitude)

Humidity: 9%

Dew Point: 21 °F

Location of RafsanjanLocation

Historic Weather in Rafsanjan — Graph

°F

Rafsanjan Temperature Yesterday

Maximum temperature yesterday: 84 °F (at 4:30 PM)
Minimum temperature yesterday: 52 °F (at 6:30 AM)
Average temperature yesterday: 70 °F

High & Low Weather Summary for the Past Weeks

 TemperatureHumidityPressure
High88 °F (Apr 27, 4:30 PM)100% (May 2, 5:00 AM)30.27 "Hg (May 2, 5:00 AM)
Low37 °F (Apr 22, 6:30 AM)1% (Apr 22, 4:30 PM)29.98 "Hg (Apr 24, 3:30 PM)
Average67 °F26%30.11 "Hg
* Reported Apr 20 1:30 PM — May 5 1:30 PM, Rafsanjan, Weather by CustomWeather, © 2016

Note: Actual official high and low records may vary slightly from our data, if they occured in-between our weather recording intervals... More about our weather records

Advertising

Rafsanjan Weather History for the Previous 24 Hours

Scroll right to see more
 ConditionsComfort  
Time TempWeatherWind HumidityBarometerVisibility
1:30 PM
Thu, May 5
86 °FScattered clouds.12 mph8%30.09 "HgN/A
12:30 PM84 °FScattered clouds.9 mph11%30.12 "HgN/A
11:30 AM84 °FSunny.7 mph12%30.15 "Hg10 mi
10:30 AM82 °FSunny.7 mph14%30.15 "Hg10 mi
9:30 AM79 °FSunny.5 mph23%30.15 "Hg10 mi
8:30 AM70 °FSunny.5 mph38%30.15 "Hg10 mi
7:30 AM63 °FSunny.5 mph49%30.12 "Hg10 mi
6:30 AM54 °FClear.5 mph54%30.09 "Hg10 mi
5:30 AM55 °FClear.5 mph47%30.09 "Hg10 mi
4:30 AM55 °FClear.No wind51%30.07 "Hg10 mi
3:30 AM55 °FClear.No wind47%30.07 "Hg10 mi
2:30 AM57 °FClear.5 mph44%30.07 "Hg10 mi
1:30 AM63 °FClear.5 mph42%30.07 "Hg10 mi
12:30 AM64 °FClear.5 mph37%30.07 "Hg10 mi
11:30 PM
Wed, May 4
63 °FClear.5 mph34%30.07 "Hg10 mi
10:30 PM70 °FClear.5 mph29%30.07 "Hg10 mi
9:30 PM73 °FClear.9 mph23%30.07 "Hg10 mi
8:30 PM75 °FPassing clouds.7 mph22%30.04 "HgN/A
7:30 PM79 °FPassing clouds.7 mph16%30.01 "HgN/A
6:30 PM82 °FScattered clouds.12 mph13%30.01 "HgN/A
5:30 PM64 °FScattered clouds.12 mph56%30.01 "HgN/A
4:30 PM84 °FPassing clouds.7 mph11%30.01 "HgN/A
3:30 PM82 °FPassing clouds.9 mph14%30.01 "HgN/A
Weather by CustomWeather, © 2016

See weather overviewHow to use our weather pages